General Aviation Weather

Text Reports

Enter one or more of the following location identifiers separated by a space:

Zip Code, Four-Character ICAO or Three-Character IATA airport codes.

METAR - Aviation Routine Weather Report
KRAC - Racine, Wisconsin
Updated at 2:33 AM GMT on July 30, 2014 (9:33 PM CDT):
SPECI KRAC 300233Z AUTO 30007KT 5SM RA BR SCT050 OVC085 16/14 A3006 RMK AO2 LTG DSNT SE AND S RAB00 P0008 T01610144
TAF - Terminal Area Forecast
KRAC - Racine, Wisconsin
Updated at 2:33 AM GMT on July 30, 2014 (9:33 PM CDT):
No TAF is currently available for this location.
Decoded:
No decoded TAF is available.
PIREP - Pilot Weather Report
KRAC - Racine, Wisconsin
Updated at 2:33 AM GMT on July 30, 2014 (9:33 PM CDT):
No PIREP is currently available for this location.
AIRMET - Airmens Meteorological Information
KRAC - Racine, Wisconsin
Updated at 2:33 AM GMT on July 30, 2014 (9:33 PM CDT):
No AIRMET is currently available for this location.
SIGMET - Significant Meteorological Information
KRAC - Racine, Wisconsin
Updated at 2:33 AM GMT on July 30, 2014 (9:33 PM CDT):
No SIGMET is currently available for this location.
NOTAM - Notice to Airmen
KRAC - Racine, Wisconsin
Updated at 2:33 AM GMT on July 30, 2014 (9:33 PM CDT):
No NOTAM is currently available for this location.
Forecast Area
KRAC - Racine, Wisconsin
Updated at 2:33 AM GMT on July 30, 2014 (9:33 PM CDT):
No NOTAM is currently available for this location.
Aviation Weather Maps